Location: Chandler
(33.3060°N, 111.8410°W)
Time: 00:47:53
(UTC-07:00)

Amateur Radio Satellites - All Passes

Search period start: 19 September 2014 00:17
Search period end: 20 September 2014 00:17
Location: Chandler, 33.3060°N, 111.8410°W

Satellite Date Start Highest point End Downlink Frequencies (MHz)
Time Altitude Azimuth
Oscar 19 19 Sep 00:45:05 00:47:04 12° 92° (E) 00:49:03 437.125 CW, 437.150 USB
ISS 19 Sep 00:58:14 00:59:50 13° 126° (SE) 01:01:26 145.800 FM
Saudisat 1A 19 Sep 01:02:19 01:04:07 12° 48° (NE) 01:05:54 436.775 MHz
UOSAT-12 19 Sep 01:14:04 01:16:54 16° 311° (NW) 01:19:46 437.025 FM, 437.400 FM
PANSAT 19 Sep 01:14:55 01:18:01 23° 164° (SSE) 01:21:06 not established
Oscar 16 19 Sep 01:21:30 01:26:07 32° 98° (E) 01:30:41 437.025 USB, Beacon 2401.1428
AO-Echo 19 Sep 01:40:39 01:44:28 22° 96° (E) 01:48:20 ?
ITAMSAT 1 19 Sep 02:03:20 02:08:02 33° 98° (E) 02:12:42 435.822 SSB
Uribyol 2 19 Sep 02:07:35 02:12:29 40° 99° (E) 02:17:20 436.500 FM
JAS-1B 19 Sep 02:18:23 02:23:56 52° 101° (E) 02:29:35 435.800 - 435.900 CW/SSB
Oscar 19 19 Sep 02:21:39 02:26:45 61° 286° (WNW) 02:31:48 437.125 CW, 437.150 USB
TMSAT-1 19 Sep 02:25:48 02:29:22 18° 94° (E) 02:32:54 436.925 FM
ISS 19 Sep 02:33:02 02:36:14 43° 320° (NW) 02:39:26 145.800 FM
AO-27 19 Sep 02:37:45 02:42:59 78° 103° (ESE) 02:48:12 436.795 MHz FM
Saudisat 1A 19 Sep 02:39:43 02:44:06 65° 244° (WSW) 02:48:27 436.775 MHz
PANSAT 19 Sep 02:54:13 02:57:49 39° 177° (S) 03:01:25 not established
OPAL 19 Sep 02:54:55 02:55:20 10° 60° (ENE) 02:55:45 ?
RS-15 19 Sep 02:54:56 03:04:46 38° 107° (ESE) 03:14:22 29.354 - 29.394 USB, Beacon 29.352 USB
Oscar 16 19 Sep 03:01:09 03:05:15 24° 292° (WNW) 03:09:21 437.025 USB, Beacon 2401.1428
KITSAT 1 19 Sep 03:06:45 03:12:24 20° 45° (NE) 03:18:00 435.175 FM
AO-Echo 19 Sep 03:18:55 03:23:12 32° 289° (WNW) 03:27:35 ?
Gurwin Techsat 1B 19 Sep 03:26:43 03:32:01 77° 284° (WNW) 03:37:19 435.225 FM
ITAMSAT 1 19 Sep 03:43:10 03:47:18 24° 292° (WNW) 03:51:26 435.822 SSB
Uribyol 2 19 Sep 03:47:49 03:51:38 21° 293° (WNW) 03:55:26 436.500 FM
TMSAT-1 19 Sep 04:04:24 04:09:26 45° 288° (WNW) 04:14:26 436.925 FM
JAS-1B 19 Sep 04:10:51 04:14:09 16° 297° (WNW) 04:17:26 435.800 - 435.900 CW/SSB
AO-27 19 Sep 04:20:36 04:21:46 11° 297° (WNW) 04:22:57 436.795 MHz FM
AO-7 19 Sep 04:27:56 04:36:03 56° 103° (ESE) 04:44:07 29.400 - 29.500 MHz
Uosat F 19 Sep 04:28:04 04:32:55 48° 100° (E) 04:37:46 435.120 FM
OPAL 19 Sep 04:28:16 04:33:25 85° 255° (WSW) 04:38:40 ?
PANSAT 19 Sep 04:34:13 04:37:41 32° 190° (S) 04:41:09 not established
KITSAT 1 19 Sep 05:00:39 05:08:46 86° 245° (WSW) 05:16:49 435.175 FM
RS-15 19 Sep 05:05:55 05:16:38 53° 305° (NW) 05:27:15 29.354 - 29.394 USB, Beacon 29.352 USB
STRAND 1 19 Sep 05:11:58 05:13:52 12° 64° (ENE) 05:15:46 ?
JAS-2 19 Sep 05:27:48 05:33:17 31° 98° (E) 05:39:18 435.800 - 435.900 CW/SSB, 435.910 FM
Hamsat 19 Sep 05:57:59 06:02:03 45° 99° (E) 06:06:04 145.90 MHz
Uosat F 19 Sep 06:08:14 06:11:16 16° 294° (WNW) 06:14:18 435.120 FM
PANSAT 19 Sep 06:15:11 06:17:23 15° 201° (SSW) 06:19:35 not established
AO-7 19 Sep 06:21:34 06:28:19 29° 299° (WNW) 06:35:04 29.400 - 29.500 MHz
SO-50 19 Sep 06:25:46 06:29:19 20° 51° (NE) 06:32:54 436.795 FM
STRAND 1 19 Sep 06:47:23 06:52:25 67° 258° (WSW) 06:57:30 ?
KITSAT 1 19 Sep 06:59:39 07:02:59 13° 260° (W) 07:06:19 435.175 FM
JAS-2 19 Sep 07:12:42 07:18:14 37° 289° (WNW) 07:24:25 435.800 - 435.900 CW/SSB, 435.910 FM
MaSat-1 19 Sep 07:20:51 07:25:14 32° 106° (ESE) 07:29:41 437.345 MHz
RS-15 19 Sep 07:26:48 07:32:19 15° 333° (NNW) 07:37:52 29.354 - 29.394 USB, Beacon 29.352 USB
Hamsat 19 Sep 07:35:54 07:37:33 12° 293° (WNW) 07:39:11 145.90 MHz
SO-67 19 Sep 07:48:01 07:51:22 51° 284° (WNW) 07:54:42 435.3500 MHz FM
SO-50 19 Sep 08:05:28 08:10:03 43° 246° (WSW) 08:14:38 436.795 FM
UOSAT-12 19 Sep 08:06:36 08:09:40 17° 49° (NE) 08:12:41 437.025 FM, 437.400 FM
MaSat-1 19 Sep 08:57:49 09:01:59 26° 300° (WNW) 09:06:08 437.345 MHz
ISS 19 Sep 09:05:11 09:08:07 28° 37° (NE) 09:11:02 145.800 FM
Oscar 11 19 Sep 09:07:04 09:09:11 13° 93° (E) 09:11:17 145.825 FM, Beacon 2401.500 USB
UKube-1 19 Sep 09:21:58 09:25:45 29° 98° (E) 09:29:31 145.840 MHz, 145.915 MHz
HO-68 19 Sep 09:30:33 09:37:45 78° 105° (ESE) 09:44:56 435.675 MHz FM
UOSAT-12 19 Sep 09:45:32 09:50:05 50° 246° (WSW) 09:54:32 437.025 FM, 437.400 FM
RS-15 19 Sep 09:50:56 09:52:10 10° 13° (NNE) 09:53:25 29.354 - 29.394 USB, Beacon 29.352 USB
Oscar 10/S400 19 Sep 10:07:54 01:17:43 55° 219° (SW) 11:02:40 145.825 - 145.975 CW/USB, Beacon 145.810 USB
FUNcube-1 19 Sep 10:30:08 10:34:39 53° 100° (E) 10:39:05 145.950 - 145.970 MHz USB
Oscar 11 19 Sep 10:41:26 10:45:30 40° 287° (WNW) 10:49:33 145.825 FM, Beacon 2401.500 USB
ISS 19 Sep 10:42:07 10:44:41 21° 231° (SW) 10:47:15 145.800 FM
PCSat 19 Sep 10:44:51 10:48:48 21° 106° (ESE) 10:52:46 145.825 MHz
UKube-1 19 Sep 10:58:34 11:01:44 20° 291° (WNW) 11:04:53 145.840 MHz, 145.915 MHz
HO-68 19 Sep 11:20:16 11:24:37 17° 300° (WNW) 11:28:57 435.675 MHz FM
Oscar 19 19 Sep 11:58:22 12:00:36 13° 64° (ENE) 12:02:51 437.125 CW, 437.150 USB
Sapphire 19 Sep 11:59:19 12:04:42 81° 295° (WNW) 12:10:09 437.095 MHz 1200 baud AX-25 AFSK
RS-15 19 Sep 12:00:06 12:09:46 33° 46° (NE) 12:19:41 29.354 - 29.394 USB, Beacon 29.352 USB
FUNcube-1 19 Sep 12:08:32 12:10:30 13° 294° (WNW) 12:12:28 145.950 - 145.970 MHz USB
PCSat 19 Sep 12:26:46 12:31:52 42° 300° (WNW) 12:37:00 145.825 MHz
Oscar 16 19 Sep 12:34:29 12:39:01 32° 70° (ENE) 12:43:34 437.025 USB, Beacon 2401.1428
AO-Echo 19 Sep 12:50:34 12:53:48 19° 68° (ENE) 12:57:00 ?
JAS-1B 19 Sep 12:57:16 13:05:10 39° 70° (ENE) 13:11:56 435.800 - 435.900 CW/SSB
Gurwin Techsat 1B 19 Sep 13:07:49 13:09:36 12° 63° (ENE) 13:11:24 435.225 FM
ITAMSAT 1 19 Sep 13:17:28 13:22:02 33° 70° (ENE) 13:26:38 435.822 SSB
Uribyol 2 19 Sep 13:21:30 13:26:15 39° 71° (ENE) 13:31:02 436.500 FM
Oscar 19 19 Sep 13:34:11 13:39:19 66° 258° (WSW) 13:44:30 437.125 CW, 437.150 USB
TMSAT-1 19 Sep 13:42:49 13:46:30 20° 67° (ENE) 13:50:13 436.925 FM
Sapphire 19 Sep 13:47:59 13:48:57 10° 313° (NW) 13:49:55 437.095 MHz 1200 baud AX-25 AFSK
AO-27 19 Sep 13:51:45 13:56:54 78° 76° (ENE) 14:02:05 436.795 MHz FM
RS-15 19 Sep 14:11:49 14:22:54 69° 247° (WSW) 14:34:29 29.354 - 29.394 USB, Beacon 29.352 USB
Oscar 16 19 Sep 14:14:06 14:18:18 25° 264° (W) 14:22:33 437.025 USB, Beacon 2401.1428
AO-Echo 19 Sep 14:27:55 14:32:17 36° 261° (W) 14:36:38 ?
Gurwin Techsat 1B 19 Sep 14:43:36 14:48:53 74° 258° (WSW) 14:54:11 435.225 FM
JAS-1B 19 Sep 14:47:17 14:55:32 40° 260° (W) 15:02:41 435.800 - 435.900 CW/SSB
ITAMSAT 1 19 Sep 14:57:27 15:01:31 23° 264° (W) 15:05:36 435.822 SSB
Uribyol 2 19 Sep 15:02:07 15:05:48 20° 265° (W) 15:09:31 436.500 FM
TMSAT-1 19 Sep 15:21:04 15:26:03 43° 261° (W) 15:31:05 436.925 FM
AO-7 19 Sep 15:22:13 15:30:10 53° 67° (ENE) 15:38:07 29.400 - 29.500 MHz
Uosat F 19 Sep 15:37:20 15:42:02 43° 72° (ENE) 15:46:44 435.120 FM
RS-15 19 Sep 16:31:10 16:33:19 11° 262° (W) 16:35:30 29.354 - 29.394 USB, Beacon 29.352 USB
Saudisat 1A 19 Sep 16:41:56 16:46:20 89° 118° (ESE) 16:50:45 436.775 MHz
OPAL 19 Sep 16:42:50 16:47:34 36° 100° (E) 16:52:12 ?
Hamsat 19 Sep 16:47:51 16:51:04 21° 70° (ENE) 16:54:17 145.90 MHz
AO-7 19 Sep 17:16:11 17:23:07 29° 262° (W) 17:30:06 29.400 - 29.500 MHz
Uosat F 19 Sep 17:17:46 17:20:57 17° 266° (W) 17:24:08 435.120 FM
MaSat-1 19 Sep 17:18:40 17:21:25 20° 58° (ENE) 17:23:53 437.345 MHz
JAS-2 19 Sep 17:21:09 17:26:25 59° 74° (ENE) 17:31:30 435.800 - 435.900 CW/SSB, 435.910 FM
KITSAT 1 19 Sep 17:31:37 17:37:08 20° 103° (ESE) 17:42:37 435.175 FM
SO-67 19 Sep 18:17:15 18:20:01 23° 73° (ENE) 18:22:49 435.3500 MHz FM
OPAL 19 Sep 18:22:14 18:26:09 22° 295° (WNW) 18:30:01 ?
Hamsat 19 Sep 18:23:05 18:26:49 28° 263° (W) 18:30:34 145.90 MHz
MaSat-1 19 Sep 18:55:50 18:57:52 15° 259° (W) 18:59:45 437.345 MHz
STRAND 1 19 Sep 19:02:11 19:07:15 59° 101° (E) 19:12:18 ?
JAS-2 19 Sep 19:10:07 19:11:51 12° 267° (W) 19:13:35 435.800 - 435.900 CW/SSB, 435.910 FM
KITSAT 1 19 Sep 19:23:39 19:31:42 71° 298° (WNW) 19:39:47 435.175 FM
SO-67 19 Sep 19:51:09 19:53:00 14° 266° (W) 19:54:52 435.3500 MHz FM
HO-68 19 Sep 19:54:49 20:01:15 38° 67° (ENE) 20:07:42 435.675 MHz FM
UKube-1 19 Sep 20:14:41 20:17:15 16° 67° (ENE) 20:19:49 145.840 MHz, 145.915 MHz
SO-50 19 Sep 20:38:25 20:40:38 14° 108° (ESE) 20:42:52 436.795 FM
STRAND 1 19 Sep 20:43:19 20:45:53 14° 295° (WNW) 20:48:28 ?
Sapphire 19 Sep 20:51:50 20:56:44 33° 58° (ENE) 21:01:35 437.095 MHz 1200 baud AX-25 AFSK
PCSat 19 Sep 21:18:30 21:23:54 63° 63° (ENE) 21:29:15 145.825 MHz
FUNcube-1 19 Sep 21:22:55 21:26:30 25° 70° (ENE) 21:30:10 145.950 - 145.970 MHz USB
KITSAT 1 19 Sep 21:24:18 21:28:35 15° 319° (NW) 21:32:54 435.175 FM
Oscar 11 19 Sep 21:31:44 21:36:06 89° 75° (ENE) 21:40:29 145.825 FM, Beacon 2401.500 USB
HO-68 19 Sep 21:42:33 21:48:52 34° 262° (W) 21:55:15 435.675 MHz FM
UKube-1 19 Sep 21:49:07 21:53:06 37° 261° (W) 21:57:08 145.840 MHz, 145.915 MHz
UOSAT-12 19 Sep 22:16:17 22:17:23 11° 106° (ESE) 22:18:29 437.025 FM, 437.400 FM
SO-50 19 Sep 22:16:25 22:20:42 47° 302° (WNW) 22:25:07 436.795 FM
Sapphire 19 Sep 22:35:28 22:39:58 27° 253° (WSW) 22:44:27 437.095 MHz 1200 baud AX-25 AFSK
FUNcube-1 19 Sep 22:59:20 23:02:47 23° 265° (W) 23:06:20 145.950 - 145.970 MHz USB
PCSat 19 Sep 23:04:11 23:06:41 13° 257° (WSW) 23:09:10 145.825 MHz
UOSAT-12 19 Sep 23:52:22 23:56:55 62° 300° (WNW) 00:01:34 437.025 FM, 437.400 FM
